Tracking 27405 objects as of 2-Jun-2023
HD Live streaming from Space Station
objects crossing your sky now

SSU 1

Track SSU 1 now!
10-day predictions
SSU 1 is classified as:


NORAD ID: 8835
Int'l Code: 1976-038C
Perigee: 596.2 km
Apogee: 1,333.8 km
Inclination: 63.3 °
Period: 104.2 minutes
Semi major axis: 7336 km
RCS: Unknown
Launch date: April 30, 1976
Source: United States (US)
Launch site: AIR FORCE WESTERN TEST RANGE (AFWTR)
Your satellite tracking list
Your tracking list is empty




NASA's NSSDC Master Catalog

Two Line Element Set (TLE):
1  8835U 76038C   23152.21270804  .00000158  00000-0  99082-4 0  9991
2  8835  63.3478  82.7974 0502735 165.6548 195.9397 13.81694441205080
Source of the keplerian elements: McCants